Weather History for Monroe, LA

Change the Weather History Date:

Tuesday, January 1, 2013

  Actual Average Record
Temperature  
Mean Temperature 48 °F 46 °F  
Max Temperature 53 °F 57 °F 80 °F (1952)
Min Temperature 42 °F 36 °F 16 °F (1964)
Degree Days  
Heating Degree Days 17 19  
Month to date heating degree days 17 19  
Since 1 July heating degree days 822 921  
Cooling Degree Days 0 0  
Month to date cooling degree days 0 0  
Year to date cooling degree days 0 0  
Moisture  
Dew Point 47 °F    
Average Humidity 91    
Maximum Humidity 100    
Minimum Humidity 82    
Precipitation  
Precipitation 0.86 in 0.16 in 2.68 in (1938)
Month to date precipitation 0.86 0.16  
Year to date precipitation 0.86 0.16  
Snow  
Snow 0.00 in - - ()
Month to date snowfall 0.0  
Since 1 July snowfall 0.0  
Snow Depth 0.00 in    
Sea Level Pressure  
Sea Level Pressure 30.08 in    
Wind  
Wind Speed 8 mph (North)    
Max Wind Speed 21 mph    
Max Gust Speed 25 mph    
Visibility 7 miles    
Events Rain    
T = Trace of Precipitation, MM = Missing Value Source: NWS Daily Summary

Daily Weather History Graph

Daily Weather History Graph

Search for Another Location

Airport:

Trip Planner

Search our weather history database for the weather conditions in past years. The results will help you decide how hot, cold, wet, or windy it might be!

Date:

Astronomy

Jan. 01, 2013 Rise Set
Actual Time 7:10 AM CST 5:13 PM CST
Civil Twilight 6:42 AM CST 5:41 PM CST
Nautical Twilight 6:12 AM CST 6:11 PM CST
Astronomical Twilight 5:42 AM CST 6:41 PM CST
Moon 9:29 PM CST (1/1) 9:36 AM CST (1/1)
Length of Visible Light 10h 58m
Length of Day
10h 03m
Waning Gibbous, 83% of the Moon is Illuminated
Jan 1
Waning Gibbous
Jan 4
Last Quarter
Jan 11
New
Jan 18
First Quarter
Jan 26
Full

Hourly Weather History & Observations

Time (CST) Temp. Windchill Dew Point Humidity Pressure Visibility Wind Dir Wind Speed Gust Speed Precip Events Conditions
12:16 AM 53.6 °F - 51.8 °F 94% 30.03 in 2.0 mi North 8.1 mph - 0.01 in Rain Rain
12:21 AM 53.6 °F - 51.8 °F 94% 30.03 in 3.0 mi North 5.8 mph - 0.02 in Rain Rain
12:37 AM 53.6 °F - 51.8 °F 94% 30.04 in 2.5 mi NNW 9.2 mph - 0.03 in Rain Heavy Rain
12:49 AM 51.8 °F - 51.8 °F 100% 30.03 in 2.5 mi North 3.5 mph - 0.03 in Rain Heavy Rain
12:53 AM 52.0 °F - 51.1 °F 97% 30.02 in 2.5 mi NE 4.6 mph - 0.04 in Rain Heavy Rain
12:55 AM 51.8 °F - 51.8 °F 100% 30.02 in 3.0 mi ENE 3.5 mph - 0.00 in Rain Heavy Rain
1:19 AM 51.8 °F - 51.8 °F 100% 30.01 in 2.5 mi Calm Calm - N/A Rain Heavy Rain
1:27 AM 51.8 °F - 51.8 °F 100% 30.01 in 2.5 mi NNE 3.5 mph - N/A Rain Heavy Rain
1:53 AM 52.0 °F - 51.1 °F 97% 30.02 in 2.5 mi Calm Calm - N/A Rain Rain
2:04 AM 51.8 °F - 51.8 °F 100% 30.02 in 4.0 mi Calm Calm - 0.01 in Rain Rain
2:18 AM 51.8 °F - 51.8 °F 100% 30.02 in 3.0 mi Calm Calm - 0.02 in Rain Heavy Rain
2:46 AM 51.8 °F - 51.8 °F 100% 30.02 in 10.0 mi Calm Calm - 0.04 in Rain Light Rain
2:53 AM 52.0 °F - 51.1 °F 97% 30.03 in 7.0 mi NW 4.6 mph - 0.04 in Rain Light Rain
3:53 AM 52.0 °F - 51.1 °F 97% 30.02 in 5.0 mi NNW 8.1 mph - 0.04 in Rain Light Rain
4:53 AM 52.0 °F - 50.0 °F 93% 30.03 in 2.5 mi North 6.9 mph - 0.04 in Rain Heavy Rain
4:56 AM 51.8 °F - 50.0 °F 94% 30.03 in 3.0 mi North 9.2 mph - 0.00 in Rain Light Rain
5:53 AM 51.1 °F - 48.9 °F 92% 30.02 in 10.0 mi NE 6.9 mph - 0.04 in   Overcast
6:22 AM 51.8 °F - 48.2 °F 88% 30.04 in 10.0 mi North 5.8 mph - 0.01 in Rain Light Rain
6:53 AM 51.1 °F - 48.9 °F 92% 30.04 in 9.0 mi Calm Calm - 0.03 in Rain Light Rain
7:20 AM 51.8 °F - 48.2 °F 88% 30.05 in 5.0 mi NNE 4.6 mph - 0.02 in Rain Light Rain
7:53 AM 51.1 °F - 48.9 °F 92% 30.05 in 6.0 mi ENE 4.6 mph - 0.04 in Rain Light Rain
8:20 AM 51.8 °F - 48.2 °F 88% 30.07 in 5.0 mi NE 4.6 mph - 0.01 in Rain Light Rain
8:53 AM 50.0 °F - 48.0 °F 93% 30.08 in 4.0 mi ENE 3.5 mph - 0.03 in Rain Rain
9:01 AM 50.0 °F - 48.2 °F 94% 30.08 in 5.0 mi ENE 5.8 mph - 0.01 in Rain Light Rain
9:12 AM 50.0 °F - 48.2 °F 94% 30.09 in 8.0 mi NE 5.8 mph - 0.01 in Rain Light Rain
9:30 AM 50.0 °F - 46.4 °F 87% 30.09 in 5.0 mi North 6.9 mph - 0.02 in Rain Light Rain
9:53 AM 50.0 °F - 48.0 °F 93% 30.12 in 5.0 mi NNW 9.2 mph - 0.04 in Rain Light Rain
10:53 AM 48.9 °F - 46.0 °F 90% 30.12 in 4.0 mi North 8.1 mph - 0.03 in   Overcast
11:53 AM 48.0 °F - 45.0 °F 89% 30.11 in 10.0 mi NNW 12.7 mph - 0.04 in   Overcast
12:53 PM 46.9 °F - 44.1 °F 90% 30.08 in 10.0 mi North 12.7 mph - 0.04 in   Overcast
1:53 PM 46.9 °F - 43.0 °F 86% 30.07 in 10.0 mi North 8.1 mph - 0.03 in   Overcast
2:53 PM 46.9 °F - 44.1 °F 90% 30.07 in 10.0 mi North 3.5 mph - 0.03 in   Overcast
3:16 PM 46.4 °F 44.3 °F 42.8 °F 87% 30.07 in 10.0 mi East 4.6 mph - 0.02 in   Overcast
3:53 PM 46.9 °F - 43.0 °F 86% 30.10 in 10.0 mi NNW 6.9 mph - 0.03 in Rain Light Rain
4:53 PM 46.0 °F 39.9 °F 43.0 °F 89% 30.12 in 10.0 mi North 13.8 mph - 0.04 in   Overcast
5:53 PM 46.0 °F 41.0 °F 42.1 °F 86% 30.14 in 10.0 mi NNW 10.4 mph - 0.03 in   Overcast
6:53 PM 45.0 °F 37.9 °F 39.9 °F 82% 30.17 in 10.0 mi NNW 16.1 mph 23.0 mph 0.02 in   Overcast
7:53 PM 44.1 °F 37.7 °F 39.9 °F 85% 30.18 in 10.0 mi NNW 12.7 mph - 0.03 in   Overcast
8:53 PM 43.0 °F 37.2 °F 39.0 °F 86% 30.19 in 10.0 mi North 10.4 mph - 0.02 in   Overcast
9:05 PM 42.8 °F 36.6 °F 39.2 °F 87% 30.20 in 10.0 mi North 11.5 mph - N/A   Overcast
9:53 PM 43.0 °F 36.8 °F 37.9 °F 82% 30.22 in 10.0 mi North 11.5 mph - 0.02 in   Overcast
10:21 PM 42.8 °F 38.0 °F 37.4 °F 81% 30.23 in 10.0 mi North 8.1 mph - 0.01 in   Mostly Cloudy
10:53 PM 42.1 °F 37.1 °F 37.0 °F 82% 30.22 in 10.0 mi North 8.1 mph - 0.02 in   Overcast
11:53 PM 42.1 °F 36.6 °F 37.0 °F 82% 30.21 in 10.0 mi NNE 9.2 mph - 0.02 in   Overcast